sat.trackr.live / text

‹ back to catalog

STARLINK-4260

NORAD 52986 · 2022-076A

PAYLOAD ACTIVE UNKNOWN

§ Identity

Operator
Country
US
Launch date
2022-07-07
Launch site
AFETR
Launch vehicle
Mass (kg)
RCS (m²)

Purposes: comms

External: N2YO · Heavens-Above · Gunter

§ Orbital elements

Epoch: 2026-05-25T03:39:36.723168Z

Period
95.44 min
Inclination
53.2147°
Eccentricity
0.0001285
Mean motion
15.08848703 rev/d
Perigee alt
538.8 km
Apogee alt
540.6 km
Semi-major
6,917.9 km
B*
-1.0747e-4
RAAN
110.8641°
Arg perigee
98.1648°
Mean anomaly
261.9490°
Rev number
21,438

§ Raw data

STARLINK-42601 52986U 22076A   26145.15250837 -.00001998  00000+0 -10747-3 0  99962 52986  53.2147 110.8641 0001285  98.1648 261.9490 15.08848703214380

JSON: /api/v1/satellites/52986 · /tle

For live sub-satellite position, see the globe view (requires WebGL).

§ Visibility from observer

Set your observer location to see the next 7 days of passes ≥ 10°. The values pass through the URL so the page stays shareable.

No JS? Fill the form by hand. The geolocation button needs JavaScript.